This is the latest recevied weather packets stored in our database for station/object WD4ITN. If no packets are shown the sender has not sent any weather packets the latest 10 day(s).
| Time | Temp. | Humidity | Pressure | Rain* | Wind** | Luminosity | Snow |
|---|---|---|---|---|---|---|---|
| 1787927897 | 22.78° C | 81% | 1019.3 hPa | 0.25 mm | - | - | - |
| 1787927594 | 22.78° C | 81% | 1019.1 hPa | 0.25 mm | - | - | - |
| 1787927312 | 22.78° C | 83% | 1019.1 hPa | 0.25 mm | - | - | - |
| 1787927002 | 22.78° C | 82% | 1019.1 hPa | 0.25 mm | - | - | - |
| 1787926702 | 22.22° C | 82% | 1019 hPa | 0.25 mm | - | - | - |
| 1787926405 | 22.22° C | 81% | 1018.9 hPa | 0.25 mm | - | - | - |
| 1787926104 | 22.22° C | 84% | 1019 hPa | 0.25 mm | - | - | - |
| 1787925795 | 22.22° C | 82% | 1018.9 hPa | 0.25 mm | - | - | - |
| 1787925522 | 22.22° C | 83% | 1019 hPa | 0.25 mm | - | - | - |
| 1787925210 | 21.67° C | 82% | 1019 hPa | 0.25 mm | - | - | - |
| 1787924912 | 21.67° C | 83% | 1018.9 hPa | 0.25 mm | - | - | - |
| 1787924609 | 21.67° C | 86% | 1019 hPa | 0.25 mm | - | - | - |
| 1787924296 | 21.11° C | 85% | 1019 hPa | 0.25 mm | - | - | - |
| 1787923999 | 21.11° C | 86% | 1019 hPa | 0.25 mm | - | - | - |
| 1787923398 | 20.56° C | 88% | 1018.9 hPa | 0.25 mm | - | - | - |
| 1787923118 | 20° C | 89% | 1018.8 hPa | 0.25 mm | - | - | - |
| 1787922813 | 20° C | 90% | 1018.8 hPa | 0.25 mm | - | - | - |
| 1787922507 | 19.44° C | 91% | 1018.8 hPa | 0.25 mm | - | - | - |
| 1787922210 | 19.44° C | 92% | 1018.7 hPa | 0.25 mm | - | - | - |
| 1787921910 | 18.89° C | 93% | 1018.7 hPa | 0.25 mm | - | - | - |
| 1787921599 | 18.33° C | 94% | 1018.7 hPa | 0.25 mm | - | - | - |
| 1787921299 | 18.33° C | 95% | 1018.8 hPa | 0.25 mm | - | - | - |
| 1787920995 | 17.78° C | 96% | 1018.7 hPa | 0.25 mm | - | - | - |
| 1787920695 | 17.78° C | 97% | 1018.6 hPa | 0.25 mm | - | - | - |
| 1787920118 | 17.22° C | 98% | 1018.5 hPa | 0.25 mm | - | - | - |
* Rain since midnight (hover to see other rain measurements)
** Current wind speed in m/s (hover to see current wind gust speed)